Regional Weather Roundup
Issued by NWS

Home | Current Version | Previous Version | Text Only | Print | Product List | Glossary Off
Versions: 1 2 3 4 5 6 7 8 9 10 11 12 13 14 15 16 17 18 19 20 21 22 23 24 25 26 27 28 29 30 31 32 33 34 35 36 37 38 39 40 41 42 43 44 45 46 47

000
ASUS43 KDMX 240007
RWRIA

WEATHER ROUNDUP FOR IOWA
NATIONAL WEATHER SERVICE DES MOINES IA
700 PM CDT TUE SEP 23 2014

NOTE: "FAIR" INDICATES FEW OR NO CLOUDS BELOW 12,000 FEET WITH NO
SIGNIFICANT WEATHER AND/OR OBSTRUCTIONS TO VISIBILITY.

* - THESE STATIONS ARE NOT NWS STATIONS...THUS NOT UNDER NWS
QUALITY CONTROL.  THEY ALSO DO NOT REPORT WEATHER SUCH
AS PRECIPITATION OR FOG.

IAZ001>003-012>014-020>022-031>034-043>046-240100-
   NORTHWEST IOWA

CITY           SKY/WX    TMP DP  RH WIND       PRES   REMARKS
CARROLL *      PTCLDY    66  54  63 SE10G17   30.12S
CHEROKEE *     MOCLDY    63  58  84 SE8       30.08S THUNDER
DENISON *      CLOUDY    66  54  63 S12G21    30.08S
LE MARS *      CLOUDY    63  59  88 SE7       30.06S
ORANGE CITY *  LGT RAIN  63  55  77 SE5       30.07S
SHELDON *      CLOUDY    59  55  88 CALM      30.08R
SIOUX CITY     CLOUDY    67  57  70 S14G22    30.06R
6HR MIN TEMP:  60; 6HR MAX TEMP:  67; 6HR PCP: TRACE;

SPENCER        LGT RAIN  61  54  77 SE12      30.09F
6HR MIN TEMP:  61; 6HR MAX TEMP:  66; 6HR PCP:  0.01;

STORM LAKE *   CLOUDY    63  61  94 SE12      30.09F
$$

IAZ055>058-069>071-079>083-090>094-240100-
   SOUTHWEST IOWA

CITY           SKY/WX    TMP DP  RH WIND       PRES   REMARKS
ATLANTIC *     PTCLDY    68  55  64 S9G15     30.12S
AUDUBON *      CLEAR     64  52  63 S7        30.13S
CLARINDA *     LGT RAIN  61  57  88 S5        30.17R
COUNCIL BLFS * CLOUDY    64  57  77 S16G23    30.10S
CRESTON *      CLEAR     64  55  72 SE7       30.15S
HARLAN  *      MOCLDY    68  57  68 SE8G14    30.14S
LAMONI         CLOUDY    65  53  65 SE8       30.15F
6HR MIN TEMP:  65; 6HR MAX TEMP:  70;

RED OAK *      CLOUDY    66  55  68 S12G18    30.13S
SHENANDOAH *   PTCLDY    64  59  82 SE6G20    30.13F
$$

IAZ047>049-059>061-072>074-084-240100-
   CENTRAL IOWA

CITY           SKY/WX    TMP DP  RH WIND       PRES   REMARKS
AMES           CLOUDY    65  53  65 SE8       30.16F
6HR MIN TEMP:  65; 6HR MAX TEMP:  70;

ANKENY *       PTCLDY    66  54  63 SE8       30.16F
CHARITON *     PTCLDY    64  54  68 SE8       30.17F
DES MOINES     CLOUDY    68  53  58 SE10      30.16F
6HR MIN TEMP:  68; 6HR MAX TEMP:  72;

GRINNELL*      CLOUDY    65  50  58 SE7       30.19S
KNOXVILLE *    CLOUDY    66  54  63 SE7       30.17S
MARSHALLTOWN   CLOUDY    65  49  56 SE6       30.18S
6HR MIN TEMP:  65; 6HR MAX TEMP:  72;

PELLA *        CLOUDY    66  53  62 SE5       30.20S
PERRY *          N/A     66  54  65 SE8       30.14S
$$

IAZ004>006-015-016-023>025-035-036-240100-
   NORTH CENTRAL IOWA

CITY           SKY/WX    TMP DP  RH WIND       PRES   REMARKS
ALGONA *       CLOUDY    59  57  94 SE5       30.14F
CLARION *      CLOUDY    64  52  63 SE7       30.15F
ESTHERVILLE    CLOUDY    60  54  80 SE13      30.11F
6HR MIN TEMP:  59; 6HR MAX TEMP:  68; 6HR PCP:  0.02;

FORT DODGE *   CLOUDY    64  52  63 SE9       30.14F
MASON CITY     CLOUDY    65  51  60 S10       30.18S
6HR MIN TEMP:  65; 6HR MAX TEMP:  73;

FOREST CITY *  RAIN      63  52  67 SE5       30.16S
IOWA FALLS *     N/A     66  48  52 SE7       30.18S
$$

IAZ007>011-017>019-026>030-037>042-050>054-066-240100-
   NORTHEAST IOWA

CITY           SKY/WX    TMP DP  RH WIND       PRES   REMARKS
CEDAR RAPIDS   MOCLDY    63  52  67 SE3       30.21S
6HR MIN TEMP:  63; 6HR MAX TEMP:  73;

CHARLES CITY * PTCLDY    64  48  55 SE7       30.19F
CLINTON *      PTCLDY    66  48  52 SE6       30.26S
DECORAH *      CLEAR     64  50  59 SE6       30.20S
DUBUQUE        PTCLDY    63  49  60 SE8       30.24F
6HR MIN TEMP:  62; 6HR MAX TEMP:  72;

MONTICELLO *   CLEAR     64  50  59 SE6       30.22S
OELWEIN *      PTCLDY    63  50  63 S7        30.21S
WATERLOO       CLOUDY    66  49  54 SE7       30.18F
6HR MIN TEMP:  65; 6HR MAX TEMP:  73;

$$

IAZ064-065-067-068-078-240100-
   EAST CENTRAL IOWA

CITY           SKY/WX    TMP DP  RH WIND       PRES   REMARKS
DAVENPORT      PTCLDY    65  46  50 S5        30.24S
6HR MIN TEMP:  65; 6HR MAX TEMP:  75;

IOWA CITY      MOCLDY    65  52  62 CALM      30.22F
6HR MIN TEMP:  65; 6HR MAX TEMP:  73;

MT. PLEASANT * MOCLDY    64  50  59 SE5       30.22S
MUSCATINE *    CLEAR     70  48  46 SE5       30.21F
QUAD CITIES    PTCLDY    63  52  67 SE5       30.23S
6HR MIN TEMP:  62; 6HR MAX TEMP:  75;

$$

IAZ062-063-075>077-085>089-095>099-240100-
   SOUTHEAST IOWA

CITY           SKY/WX    TMP DP  RH WIND       PRES   REMARKS
BURLINGTON     MOCLDY    64  50  60 SE3       30.21F
6HR MIN TEMP:  64; 6HR MAX TEMP:  74; 6HR PCP: TRACE;

FAIRFIELD *    PTCLDY    64  52  63 SE6       30.21S
FORT MADISON * CLEAR     64  52  63 CALM      30.22F
KEOKUK *       MOCLDY    66  52  59 SE3       30.20F
OSKALOOSA *      N/A     64  53  67 SE6       30.20S
CENTERVILLE *  CLEAR     63  55  77 E3        30.20F
OTTUMWA        CLOUDY    64  52  64 SE6       30.19F
6HR MIN TEMP:  64; 6HR MAX TEMP:  73;

WASHINGTON *   CLEAR     64  52  63 CALM      30.21F
$$

ABBREVIATIONS USED IN REMARKS
   TC - TEMPERATURES IN CELSIUS
  WCI - WIND CHILL INDEX
   HX - HEAT INDEX
  VSB - VISIBILITY
$$



USA.gov is the U.S. government's official web portal to all federal, state and local government web resources and services.